Tracking 27112 objects as of 26-Mar-2023
HD Live streaming from Space Station
objects crossing your sky now

CENTAURI-1

Track CENTAURI-1 now!
10-day predictions


NORAD ID: 43809
Int'l Code: 2018-099BD
Perigee: 568.0 km
Apogee: 588.8 km
Inclination: 97.6 °
Period: 96.1 minutes
Semi major axis: 6949 km
RCS: Unknown
Launch date: December 3, 2018
Source: Australia (AUS)
Launch site: AIR FORCE WESTERN TEST RANGE (AFWTR)
Your satellite tracking list
Your tracking list is empty




NASA's NSSDC Master Catalog

Two Line Element Set (TLE):
1 43809U 18099BD  23084.91704122  .00007147  00000-0  59923-3 0  9994
2 43809  97.5802 149.6584 0014963  50.4097 309.8445 14.98595254234893
Source of the keplerian elements: AFSPC